Погода в Тайпаке

Погода в Тайпаке : погода сейчас, прогноз погоды и архив. Всё, что Вы хотите узнать о погоде в Тайпаке!

Хотите узнать прогноз погоды в Тайпаке? Тогда Вам сюда: Погода в Тайпаке

Поиск расширенной информации на нашем сайте:

Другие новости

Новости СМИ2

Главная страница сайта

Новости сайта

03.07.2017

Напоминаем, что на нашем специализированном сайте Метеоцентр.Азия вы можете получить высокодетализированные автоматические прогнозы погоды по пунктам России, СНГ и мира в авиационном формате (включающие направление и скорость ветра, видимость, явления погоды, количество и форму облачности, нижнюю и верхнюю границу облачности).


Погода в Тайпаке - сегодня

Время (UTC), дата Ветер
(°,м/с) 
Видим.   Явления Облачность Т
(°С)
Тd
(°С)
f(%) Тe
(°С)
Pmin
(гПа)
dP
(гПа)
Po
(мм)
O2
(г/м3)
Тmin Tmax R s Состояние
почвы
09 21.04.18 290 (З) 10 км    10/10 600 м кучево-дожд. 
[Cb calv]
+9.4 +9.4 100 +8  1005  1.3  754  292           
12 21.04.18 310 (СЗ) 10 км    8/8 1000 м 
[Cu med, cong]
+13.7 +6.4 61 +13  1004.9  -0.1  754  288           
15 21.04.18 320 (СЗ) 10 км    8/0 средняя 
[Ac trans]
+12 +1.5 49 +11  1005.8  0.9  754  291    +14.3       
18 21.04.18 310 (СЗ) н/о    ясно 
+5 -0.6 67 +4  1007.6  1.8  756  299    +14.3  0.0     
21 21.04.18 310 (СЗ) н/о    ясно 
+1.6 -0.9 83 +1  1007.8  0.2  756  303           
00 22.04.18 300 (СЗ) н/о    ясно 
-0.9 -0.9 100 -2  1007.1  -0.7  755  305           
06 22.04.18 220 (ЮЗ) 10 км    3/0 верхняя 
[Ci fib]
+13.6 +1.5 44 +12  1003.8  -2.2  753  289  -1.3         
09 22.04.18 210 (ЮЗ) 15-20  10 км    8/8 1000 м 
[Cu med, cong]
+17.9 +1.7 34 +17  1001.3  -2.5  751  284           
12 22.04.18 230 (ЮЗ) 15-20  10 км  {ливн. осадки}  9/9 600 м кучево-дожд. 
[Cb calv]
+17 +2.5 38 +16  999.7  -1.6  750  284           
15 22.04.18 230 (ЮЗ) 8{20}  10 км  {ливн. осадки}  8/8 600 м кучево-дожд. 
[Cb calv]
+11.6 +11.6 100 +13  1000.7  750  288    +18.3       
18 22.04.18 240 (ЮЗ) н/о  {ливн. осадки}  6/0 средняя 
[Ac trans]
+7.5 +7.5 100 +7  1001.9  1.2  751  293    +1.8  0.4     
21 22.04.18 210 (ЮЗ) н/о  слаб. ливневой дождь  10/10 600 м кучево-дожд. 
[Cb calv]
+9.2 +9.2 100 +8  1002  0.1  751  291           
00 23.04.18 220 (ЮЗ) н/о  {ливн. осадки}  10/10 600 м кучево-дожд. 
[Cb calv]
+5.6 +5.6 100 +5  1001.9  -0.1  751  296           
03 23.04.18 230 (ЮЗ) 10 км    8/8 1000 м 
[Cu med, cong]
+8.3 +8.3 100 +9  1001.6  -0.3  751  292           
09 23.04.18 270 (З) 10 км    9/9 600 м кучево-дожд. 
[Cb calv]
+10.9 +4.2 63 +10  1004.4  2.6  753  291           
12 23.04.18 270 (З) 10 км    8/8 1000 м 
[Cu med, cong]
+11.9 +0.2 45 +11  1005.4  754  291           
15 23.04.18 280 (З) 10 км    9/9 1000 м 
[Cu med, cong]
+10 +0.7 52 +10  1006.6  1.2  755  293    +13.1       
18 23.04.18 290 (З) н/о  слаб. ливневой дождь  10/10 600 м кучево-дожд. 
[Cb calv]
+3.8 +3.8 100 +3  1009.2  2.6  757  300    +13.1       
21 23.04.18 300 (СЗ) н/о  {ливн. осадки}  8/8 600 м кучево-дожд. 
[Cb calv]
+3.5 +3.5 100 +4  1009.6  0.4  757  301           
00 24.04.18 300 (СЗ) н/о  {ливн. осадки}  3/3 600 м кучево-дожд. 
[Cb calv]
+1.7 +1.7 100 1010.4  0.8  758  303           
03 24.04.18 270 (З) 10 км    3/0 верхняя 
[Ci fib]
+1.8 +1.8 100 1011.9  1.4  759  303           
06 24.04.18 340 (С) 10 км    8/8 1000 м 
[Cu med, cong]
+6.8 +0.4 64 +5  1013.3  1.5  760  299  +0.3       
09 24.04.18 320 (СЗ) 10 км    9/9 1000 м 
[Cu med, cong]
+8.6 -5.7 36 +7  1014.3  761  298           
12 24.04.18 270 (З) 10 км    8/8 1000 м 
[Cu med, cong]
+10.6 -7 28 +9  1014.5  0.2  761  296           
15 24.04.18 280 (З) 10 км    8/8 1000 м 
[Cu med, cong]
+9.3 -5.8 34 +8  1014.9  0.4  761  297    +11.2       
Время (UTC), дата Ветер
(°,м/с) 
Видим.   Явления Облачность Т
(°С)
Тd
(°С)
f(%) Тe
(°С)
Pmin
(гПа)
dP
(гПа)
Po
(мм)
O2
(г/м3)
Тmin Tmax R s Состояние
почвы

Для получения пояснительной информации подведите курсор к названию столбца.

ПОГОДА в Тайпаке - архив

Всё, что Вы хотите узнать о погоде в Тайпаке - удобно и подробно!

Выберите нужную дату (начиная с 1 января 2015* года) и нажмите кнопку "Найти".
Будут отображены архивные сводки погоды по пункту Тайпак, начиная с указанной даты.


Отображать данные в формате CSV (для использования в таблицах Excel)


Внимание! Наш архив погоды предназначен исключительно для личного некоммерческого использования в познавательных целях. Если Вам необходимы официальные справки о состоянии погоды (для производственных, юридических, коммерческих и т.п. целей), обращайтесь в органы Росгидромета.

*Примечание: данная дата относится к архиву по метеостанциям СССР (Россия, СНГ, Балтия).
Архив по метеостанциям Зарубежной Европы и Азии (кроме Китая) хранится 10 дней, по другим регионам земного шара (Китай, Африка, Америка, Австралия, Океания) - 1 день.

Тайпак - район местоположения метеостанции


Название, широта, долгота, высота метеостанции:
Тайпак (Калмыково) 49.1°ш. 51.9°д. 2 м над ур. моря [Казахстан]

Дополнительная информация

В oтличие oт бoльшинства пoгoдных сайтoв мы публикуем пoдрoбную метеoинфoрмацию в детальнoм прoфессиoнальнoм фoрмате.

Характеристики температуры и влажнoсти вoздуха измеряются на высoте 2 м в тени вдали oт зданий и деревьев.
Скoрoсть ветра измеряется на высoте 10 м (на урoвне рoста челoвека скoрoсть ветра ниже в 1.5-2 раза). Если метеoстанция нахoдится в гoрoде или в лесу, тo скoрoсть ветра занижена на 2-4 м/с пo сравнению с oткрытым местoм. Скoрoсть ветра над акватoриями крупных рек и oзёр, а также на вершинах хoлмoв на 2-5 м/с выше, чем в oбычных услoвиях.
Атмoсфернoе давление в разных тoчках местнoсти мoжет значительнo oтличаться oт давления на метеoстанции, в зависимoсти oт услoвий рельефа (при пoдъёме на 10 м давление пoнижается примернo на 1 мм рт.ст.).